Home   Weather   Bamberg   Past weeks

Flag for Germany Past Weather in Bamberg, Bavaria, Germany — Yesterday and Last 2 Weeks

Now
48 °F

Clear.


Feels Like: 48 °F
Forecast: 47 / 72 °F
Wind: 1 mph from North

Location: Nuernberg

Current Time: Aug 21, 2017 at 3:06:29 am

Latest Report: Aug 21, 2017 at 2:20 am


Visibility: 10 mi

Pressure: 30.24 "Hg

Humidity: 94%

Dew Point: 46 °F

Location of BambergLocation

Past Weather in Bamberg — Graph

°F

Bamberg Temperature Yesterday

Maximum temperature yesterday: 68 °F (at 2:50 pm)
Minimum temperature yesterday: 48 °F (at 2:20 am)
Average temperature yesterday: 57 °F

High & Low Weather Summary for the Past Weeks

 TemperatureHumidityPressure
High86 °F (Aug 15, 2:50 pm)100% (Aug 6, 5:53 am)30.27 "Hg (Aug 6, 5:53 am)
Low48 °F (Aug 7, 4:20 am)39% (Aug 7, 5:20 pm)29.86 "Hg (Aug 8, 9:50 am)
Average64 °F77%30.09 "Hg
* Reported Aug 6 2:20 am — Aug 21 2:20 am, Bamberg. Weather by CustomWeather, © 2017

Note: Actual official high and low records may vary slightly from our data, if they occured in-between our weather recording intervals... More about our weather records

Advertising

Bamberg Weather History for the Previous 24 Hours

Scroll right to see more
 ConditionsComfort  
Time TempWeatherWind HumidityBarometerVisibility
2:20 am
Mon, Aug 21
48 °FClear.1 mph94%30.24 "Hg10 mi
1:50 am48 °FClear.1 mph94%30.24 "Hg10 mi
1:20 am48 °FClear.No wind94%30.27 "Hg10 mi
12:50 am48 °FClear.No wind94%30.27 "Hg10 mi
12:26 am50 °FClear.No wind88%30.27 "Hg10 mi
12:20 am50 °FClear.No wind88%30.24 "Hg10 mi
11:50 pm
Sun, Aug 20
50 °FClear.1 mph88%30.27 "Hg10 mi
11:23 pm50 °FClear.No wind88%30.27 "Hg10 mi
11:20 pm50 °FClear.No wind88%30.27 "Hg10 mi
10:53 pm52 °FClear.No wind82%30.24 "Hg10 mi
10:29 pm54 °FClear.No wind77%30.24 "Hg10 mi
10:20 pm52 °FClear.No wind82%30.24 "Hg10 mi
9:50 pm55 °FClear.No wind67%30.24 "Hg10 mi
9:20 pm57 °FClear.2 mph67%30.24 "Hg10 mi
8:50 pm59 °FClear.No wind59%30.24 "Hg10 mi
8:20 pm61 °FSunny.2 mph55%30.24 "Hg10 mi
7:50 pm63 °FSunny.5 mph52%30.24 "Hg10 mi
7:20 pm64 °FSunny.9 mph46%30.21 "Hg10 mi
6:50 pm64 °FPassing clouds.10 mph43%30.21 "HgN/A
6:20 pm66 °FPassing clouds.12 mph43%30.21 "HgN/A
5:50 pm66 °FPassing clouds.13 mph46%30.21 "HgN/A
5:20 pm66 °FPassing clouds.10 mph43%30.21 "HgN/A
4:50 pm68 °FPassing clouds.13 mph40%30.21 "HgN/A
4:20 pm68 °FSunny.15 mph40%30.21 "Hg10 mi
3:50 pm66 °FSunny.16 mph43%30.21 "Hg10 mi
2:50 pm68 °FSunny.16 mph43%30.21 "Hg10 mi
2:20 pm66 °FPassing clouds.16 mph49%30.21 "HgN/A
2:06 pm66 °FScattered clouds.16 mph46%30.21 "HgN/A
1:50 pm66 °FScattered clouds.17 mph49%30.21 "HgN/A
1:20 pm63 °FScattered clouds.9 mph56%30.21 "HgN/A
12:50 pm64 °FScattered clouds.12 mph56%30.21 "HgN/A
12:20 pm64 °FScattered clouds.12 mph56%30.24 "HgN/A
11:50 am63 °FScattered clouds.9 mph64%30.24 "HgN/A
11:20 am63 °FScattered clouds.12 mph64%30.24 "HgN/A
10:50 am63 °FScattered clouds.9 mph68%30.24 "HgN/A
10:20 am63 °FScattered clouds.5 mph73%30.24 "HgN/A
9:50 am59 °FScattered clouds.6 mph77%30.24 "HgN/A
9:20 am59 °FPassing clouds.6 mph77%30.24 "HgN/A
9:01 am57 °FPassing clouds.3 mph82%30.21 "HgN/A
8:50 am57 °FPassing clouds.7 mph77%30.21 "HgN/A
8:20 am57 °FSunny.2 mph82%30.21 "Hg10 mi
7:50 am55 °FSunny.No wind88%30.21 "Hg10 mi
7:33 am54 °FSunny.No wind88%30.21 "Hg10 mi
7:20 am52 °FSunny.No wind94%30.21 "Hg10 mi
6:50 am50 °FSunny.1 mph94%30.21 "Hg10 mi
6:20 am48 °FSunny.5 mph94%30.18 "Hg10 mi
5:50 am50 °FClear.3 mph94%30.18 "Hg10 mi
5:20 am50 °FClear.5 mph94%30.18 "Hg10 mi
4:50 am48 °FClear.6 mph94%30.18 "Hg10 mi
4:27 am50 °FClear.No wind94%30.18 "Hg10 mi
4:20 am50 °FClear.1 mph94%30.18 "Hg10 mi
3:53 am48 °FClear.No wind100%30.15 "Hg10 mi
3:20 am50 °FClear.No wind94%30.15 "Hg10 mi
Weather by CustomWeather, © 2017

See weather overviewHow to use our weather pages